User: anonymous   Login
Location: Unspecified
(0.0000°N, 0.0000°E)
Time: 02:01:52
(UTC+00:00)
Language:

STARLINK-2423 - Orbit

View from above orbital plane
View from above orbital plane
View from above satellite
View from above satellite

Ground track
Ground track

The orbit is defined by the following mean orbital elements,

1 47833U          26145.29962453 +.00000000 +00000-0 +73036-4 0 00009
2 47833  53.1578 259.9914 0001679  86.9261 273.1933 15.31705869    03
Epoch (UTC): 25 May 2026 07:11:27
Eccentricity: 0.0001679
inclination: 53.1578°
perigee height: 470 km
apogee height: 472 km
right ascension of ascending node: 259.9914°
argument of perigee: 86.9261°
revolutions per day: 15.31705869
mean anomaly at epoch: 273.1933°

The dashed part of the orbit path shows where the satellite is in the earth's shadow,  

DLR